Gulkana, AK

2:23 AM AKDT on March 25, 2017 (GMT -0800)
Gulkana

Weather History for PAGK - July, 2012

Change the Weather History Date:

Sunday, July 8, 2012

  Actual Average Record
Temperature  
Mean Temperature 50 °F -  
Max Temperature 60 °F 68 °F 87 °F (1951)
Min Temperature 39 °F 45 °F 34 °F (1998)
Degree Days  
Heating Degree Days 16    
Moisture  
Dew Point 34 °F    
Average Humidity 55    
Maximum Humidity 89    
Minimum Humidity 20    
Precipitation  
Precipitation 0.00 in - - ()
Sea Level Pressure  
Sea Level Pressure 30.03 in    
Wind  
Wind Speed 11 mph (SSE)    
Max Wind Speed 21 mph    
Max Gust Speed 30 mph    
Visibility 10 miles    
Events Rain    
Averages and records for this station are not official NWS values.
T = Trace of Precipitation, MM = Missing Value Source: NWS Daily Summary

Daily Weather History Graph

Daily Weather History Graph

Search for Another Location

Airport or City:

Trip Planner

Search our weather history database for the weather conditions in past years. The results will help you decide how hot, cold, wet, or windy it might be!

Date:

Astronomy

Jul. 08, 2012 Rise Set
Actual Time 4:09 AM AKDT 11:23 PM AKDT
Civil Twilight 2:19 AM AKDT 1:14 AM AKDT
Nautical Twilight Sun does not rise Sun does not rise
Astronomical Twilight Sun does not rise Sun does not rise
Moon 11:50 PM AKDT (7/8) 12:02 PM AKDT (7/8)
Length of Visible Light 22h 55m
Length of Day
19h 14m
Waning Gibbous, 72% of the Moon is Illuminated
Jul 8
Waning Gibbous
Jul 10
Last Quarter
Jul 18
New
Jul 26
First Quarter
Aug 1
Full

Hourly Weather History & Observations

Time (AKDT) Temp. Windchill Dew Point Humidity Pressure Visibility Wind Dir Wind Speed Gust Speed Precip Events Conditions
12:53 AM 45.0 °F 39.3 °F 39.0 °F 80% 30.01 in 10.0 mi SE 11.5 mph - N/A   Mostly Cloudy
1:53 AM 43.0 °F 37.2 °F 39.9 °F 89% 30.02 in 10.0 mi SSE 10.4 mph - N/A   Partly Cloudy
2:53 AM 43.0 °F 37.2 °F 37.9 °F 82% 30.03 in 10.0 mi SSE 10.4 mph - N/A   Mostly Cloudy
3:53 AM 43.0 °F 38.2 °F 36.0 °F 76% 30.04 in 10.0 mi South 8.1 mph - N/A   Partly Cloudy
4:53 AM 41.0 °F 34.7 °F 36.0 °F 82% 30.04 in 10.0 mi SSE 10.4 mph - N/A   Clear
5:53 AM 42.1 °F 37.7 °F 35.1 °F 76% 30.04 in 10.0 mi SSE 6.9 mph - N/A   Clear
6:08 AM 42.8 °F 37.0 °F 33.8 °F 70% 30.01 in 10.0 mi SSE 10.4 mph - N/A   Scattered Clouds
6:53 AM 44.1 °F 38.1 °F 34.0 °F 68% 30.04 in 10.0 mi SSE 11.5 mph - N/A   Scattered Clouds
7:53 AM 46.9 °F - 35.1 °F 63% 30.05 in 10.0 mi SSE 11.5 mph - N/A   Scattered Clouds
8:53 AM 50.0 °F - 33.1 °F 52% 30.04 in 10.0 mi SSE 15.0 mph - N/A   Scattered Clouds
9:53 AM 52.0 °F - 30.9 °F 45% 30.04 in 10.0 mi SSE 17.3 mph 23.0 mph N/A   Scattered Clouds
10:53 AM 53.1 °F - 28.0 °F 38% 30.03 in 10.0 mi SE 17.3 mph 29.9 mph N/A   Scattered Clouds
11:53 AM 55.0 °F - 30.9 °F 40% 30.03 in 10.0 mi SSE 16.1 mph 24.2 mph N/A   Scattered Clouds
12:53 PM 57.0 °F - 32.0 °F 39% 30.03 in 10.0 mi SSE 12.7 mph 21.9 mph N/A   Scattered Clouds
1:53 PM 57.0 °F - 30.0 °F 36% 30.02 in 10.0 mi SSE 10.4 mph 19.6 mph N/A   Mostly Cloudy
2:53 PM 59.0 °F - 28.9 °F 32% 30.01 in 10.0 mi South 9.2 mph 17.3 mph N/A   Mostly Cloudy
3:53 PM 59.0 °F - 28.9 °F 32% 30.01 in 10.0 mi South 15.0 mph 19.6 mph N/A   Mostly Cloudy
4:53 PM 57.9 °F - 28.9 °F 33% 30.01 in 10.0 mi SE 13.8 mph 20.7 mph N/A   Mostly Cloudy
5:53 PM 54.0 °F - 32.0 °F 43% 30.04 in 10.0 mi SE 20.7 mph 25.3 mph 0.00 in Rain Light Rain
6:53 PM 54.0 °F - 34.0 °F 47% 30.04 in 10.0 mi SE 11.5 mph - 0.00 in   Mostly Cloudy
7:53 PM 53.1 °F - 34.0 °F 48% 30.04 in 10.0 mi SE 15.0 mph 20.7 mph N/A   Mostly Cloudy
8:53 PM 51.1 °F - 36.0 °F 56% 30.03 in 10.0 mi ESE 6.9 mph - N/A   Mostly Cloudy
9:27 PM 51.8 °F - 35.6 °F 54% 30.00 in 10.0 mi SSE 9.2 mph - N/A   Mostly Cloudy
9:53 PM 50.0 °F - 35.1 °F 57% 30.03 in 10.0 mi SE 8.1 mph - N/A   Clear
10:53 PM 46.0 °F 43.9 °F 36.0 °F 68% 30.04 in 10.0 mi South 4.6 mph - N/A   Clear
11:53 PM 43.0 °F 40.3 °F 34.0 °F 71% 30.05 in 10.0 mi SSE 4.6 mph - N/A   Clear